sat.trackr.live / text

‹ back to catalog

STARLINK-1351

NORAD 45697 · 2020-035AS

PAYLOAD ACTIVE UNKNOWN

§ Identity

Operator
Country
US
Launch date
2020-06-04
Launch site
AFETR
Launch vehicle
Mass (kg)
RCS (m²)

Purposes: comms

External: N2YO · Heavens-Above · Gunter

§ Orbital elements

Epoch: 2026-05-25T00:00:55.048896Z

Period
92.02 min
Inclination
53.0445°
Eccentricity
0.0005342
Mean motion
15.64932922 rev/d
Perigee alt
369.8 km
Apogee alt
377.0 km
Semi-major
6,751.6 km
B*
4.3248e-4
RAAN
10.3895°
Arg perigee
104.2433°
Mean anomaly
255.9175°
Rev number
33,127

§ Raw data

STARLINK-13511 45697U 20035AS  26145.00063714  .00042852  00000+0  43248-3 0  99942 45697  53.0445  10.3895 0005342 104.2433 255.9175 15.64932922331274

JSON: /api/v1/satellites/45697 · /tle

For live sub-satellite position, see the globe view (requires WebGL).

§ Visibility from observer

Set your observer location to see the next 7 days of passes ≥ 10°. The values pass through the URL so the page stays shareable.

No JS? Fill the form by hand. The geolocation button needs JavaScript.